Hourly Weather New Delhi

Today, 16 June, Wednesday

Time Temperature Precipitation Wind Pressure Humidity
00:00 +34°C° 0 mm 4 mps 727 mmHg 48%
01:00 +34°C° 0 mm 3 mps 727 mmHg 50%
02:00 +34°C° 0 mm 3 mps 728 mmHg 52%
03:00 +34°C° 0.5 mm 3 mps 728 mmHg 53%
04:00 +32°C° 0.5 mm 2 mps 728 mmHg 54%
05:00 +32°C° 0.5 mm 2 mps 728 mmHg 56%
06:00 +32°C° 0.2 mm 2 mps 729 mmHg 56%
07:00 +33°C° 0.2 mm 3 mps 729 mmHg 57%
08:00 +33°C° 0.2 mm 4 mps 729 mmHg 58%
09:00 +34°C° 0 mm 3 mps 729 mmHg 53%
10:00 +36°C° 0 mm 2 mps 730 mmHg 48%
11:00 +36°C° 0 mm 1 mps 730 mmHg 43%
12:00 +37°C° 0 mm 1 mps 729 mmHg 41%
13:00 +37°C° 0 mm 1 mps 729 mmHg 39%
14:00 +39°C° 0 mm 1 mps 728 mmHg 37%
15:00 +39°C° 0 mm 2 mps 728 mmHg 35%
16:00 +40°C° 0 mm 2 mps 728 mmHg 33%
17:00 +40°C° 0 mm 2 mps 728 mmHg 30%
18:00 +40°C° 0.1 mm 2 mps 728 mmHg 31%
19:00 +39°C° 0.1 mm 3 mps 728 mmHg 32%
20:00 +38°C° 0.1 mm 3 mps 728 mmHg 33%
21:00 +37°C° 0 mm 3 mps 729 mmHg 38%
22:00 +36°C° 0 mm 4 mps 730 mmHg 42%
23:00 +35°C° 0 mm 4 mps 730 mmHg 46%

Tomorrow, 17 June, Thursday

Time Temperature Precipitation Wind Pressure Humidity
00:00 +35°C° 0 mm 4 mps 730 mmHg 51%
01:00 +34°C° 0 mm 4 mps 730 mmHg 55%
02:00 +33°C° 0 mm 3 mps 730 mmHg 59%
03:00 +33°C° 0 mm 3 mps 730 mmHg 59%
04:00 +31°C° 0 mm 3 mps 730 mmHg 59%
05:00 +31°C° 0 mm 2 mps 730 mmHg 59%
06:00 +32°C° 0 mm 2 mps 731 mmHg 56%
07:00 +34°C° 0 mm 3 mps 731 mmHg 53%
08:00 +34°C° 0 mm 3 mps 732 mmHg 50%
09:00 +36°C° 0 mm 2 mps 732 mmHg 45%
10:00 +38°C° 0 mm 2 mps 731 mmHg 40%
11:00 +39°C° 0 mm 1 mps 731 mmHg 36%
12:00 +40°C° 0 mm 2 mps 731 mmHg 32%
13:00 +41°C° 0 mm 2 mps 730 mmHg 28%
14:00 +43°C° 0 mm 3 mps 730 mmHg 25%
15:00 +43°C° 0 mm 3 mps 729 mmHg 23%
16:00 +42°C° 0 mm 2 mps 729 mmHg 22%
17:00 +43°C° 0 mm 2 mps 728 mmHg 21%
18:00 +42°C° 0 mm 3 mps 729 mmHg 26%
19:00 +41°C° 0 mm 4 mps 729 mmHg 32%
20:00 +39°C° 0 mm 6 mps 730 mmHg 37%
21:00 +39°C° 0 mm 5 mps 730 mmHg 40%
22:00 +37°C° 0 mm 4 mps 731 mmHg 43%
23:00 +36°C° 0 mm 3 mps 731 mmHg 46%

Day after tomorrow, 18 June, Friday

Time Temperature Precipitation Wind Pressure Humidity
00:00 +36°C° 0 mm 3 mps 731 mmHg 47%
01:00 +36°C° 0 mm 2 mps 730 mmHg 48%
02:00 +35°C° 0 mm 2 mps 730 mmHg 48%
03:00 +35°C° 0 mm 2 mps 730 mmHg 49%
04:00 +35°C° 0 mm 2 mps 730 mmHg 50%
05:00 +34°C° 0 mm 1 mps 730 mmHg 51%
06:00 +34°C° 0 mm 1 mps 731 mmHg 49%
07:00 +35°C° 0 mm 1 mps 731 mmHg 47%
08:00 +36°C° 0 mm 1 mps 731 mmHg 44%
09:00 +37°C° 0 mm 1 mps 731 mmHg 40%
10:00 +40°C° 0 mm 1 mps 731 mmHg 36%
11:00 +41°C° 0 mm 1 mps 731 mmHg 32%
12:00 +42°C° 0 mm 1 mps 730 mmHg 30%
13:00 +42°C° 0 mm 1 mps 730 mmHg 28%
14:00 +43°C° 0 mm 1 mps 729 mmHg 26%
15:00 +42°C° 0.1 mm 2 mps 729 mmHg 27%
16:00 +42°C° 0.1 mm 3 mps 729 mmHg 29%
17:00 +42°C° 0.1 mm 4 mps 729 mmHg 31%
18:00 +40°C° 0.4 mm 4 mps 729 mmHg 38%
19:00 +37°C° 0.4 mm 5 mps 730 mmHg 45%
20:00 +35°C° 0.4 mm 5 mps 731 mmHg 51%
21:00 +35°C° 0.3 mm 5 mps 731 mmHg 53%
22:00 +34°C° 0.3 mm 5 mps 731 mmHg 55%
23:00 +33°C° 0.3 mm 4 mps 731 mmHg 57%

19 June, Saturday

Time Temperature Precipitation Wind Pressure Humidity
00:00 +34°C° 0 mm 4 mps 731 mmHg 56%
01:00 +34°C° 0 mm 3 mps 731 mmHg 56%
02:00 +34°C° 0 mm 2 mps 730 mmHg 55%
03:00 +34°C° 0 mm 2 mps 730 mmHg 56%
04:00 +32°C° 0 mm 2 mps 730 mmHg 57%
05:00 +32°C° 0 mm 2 mps 731 mmHg 58%
06:00 +34°C° 0 mm 2 mps 731 mmHg 55%
07:00 +35°C° 0 mm 2 mps 731 mmHg 52%
08:00 +35°C° 0 mm 1 mps 731 mmHg 50%
09:00 +36°C° 0 mm 1 mps 731 mmHg 44%
10:00 +36°C° 0 mm 0 mps 731 mmHg 39%
11:00 +38°C° 0 mm 0 mps 731 mmHg 34%
12:00 +41°C° 0 mm 1 mps 730 mmHg 31%
13:00 +42°C° 0 mm 1 mps 730 mmHg 28%
14:00 +43°C° 0 mm 2 mps 729 mmHg 25%
15:00 +43°C° 0 mm 2 mps 729 mmHg 24%
16:00 +43°C° 0 mm 1 mps 728 mmHg 23%
17:00 +43°C° 0 mm 1 mps 728 mmHg 22%
18:00 +42°C° 0 mm 2 mps 728 mmHg 25%
19:00 +41°C° 0 mm 2 mps 728 mmHg 27%
20:00 +40°C° 0 mm 3 mps 729 mmHg 29%
21:00 +40°C° 0 mm 4 mps 729 mmHg 34%
22:00 +39°C° 0 mm 5 mps 730 mmHg 38%
23:00 +38°C° 0 mm 6 mps 730 mmHg 42%

20 June, Sunday

Time Temperature Precipitation Wind Pressure Humidity
00:00 +37°C° 0 mm 5 mps 730 mmHg 44%
01:00 +36°C° 0 mm 5 mps 730 mmHg 45%
02:00 +36°C° 0 mm 5 mps 730 mmHg 47%
03:00 +35°C° 0 mm 4 mps 730 mmHg 51%
04:00 +35°C° 0 mm 4 mps 730 mmHg 54%
05:00 +34°C° 0 mm 4 mps 730 mmHg 58%
06:00 +34°C° 0 mm 4 mps 731 mmHg 56%
07:00 +35°C° 0 mm 4 mps 731 mmHg 53%
08:00 +36°C° 0 mm 3 mps 731 mmHg 51%
09:00 +37°C° 0 mm 3 mps 731 mmHg 46%
10:00 +39°C° 0 mm 3 mps 731 mmHg 41%
11:00 +40°C° 0 mm 2 mps 731 mmHg 36%
12:00 +41°C° 0 mm 2 mps 730 mmHg 33%
13:00 +41°C° 0 mm 2 mps 730 mmHg 31%
14:00 +42°C° 0 mm 1 mps 729 mmHg 29%
15:00 +42°C° 0.2 mm 2 mps 729 mmHg 30%
16:00 +42°C° 0.2 mm 3 mps 728 mmHg 31%
17:00 +41°C° 0.2 mm 4 mps 728 mmHg 32%
18:00 +41°C° 0 mm 4 mps 729 mmHg 34%
19:00 +41°C° 0 mm 5 mps 729 mmHg 36%
20:00 +40°C° 0 mm 5 mps 729 mmHg 38%
21:00 +39°C° 0.1 mm 5 mps 730 mmHg 41%
22:00 +37°C° 0.1 mm 5 mps 730 mmHg 45%
23:00 +36°C° 0.1 mm 5 mps 731 mmHg 48%

21 June, Monday

Time Temperature Precipitation Wind Pressure Humidity
00:00 +36°C° 0.4 mm 5 mps 730 mmHg 51%
01:00 +35°C° 0.4 mm 5 mps 730 mmHg 53%
02:00 +34°C° 0.4 mm 4 mps 730 mmHg 55%
03:00 +34°C° 0.7 mm 4 mps 730 mmHg 56%
04:00 +34°C° 0.7 mm 3 mps 730 mmHg 56%
05:00 +32°C° 0.7 mm 2 mps 730 mmHg 57%
06:00 +34°C° 0 mm 2 mps 731 mmHg 54%
07:00 +35°C° 0 mm 2 mps 731 mmHg 50%
08:00 +36°C° 0 mm 2 mps 731 mmHg 47%
09:00 +37°C° 0 mm 2 mps 731 mmHg 42%
10:00 +39°C° 0 mm 1 mps 731 mmHg 38%
11:00 +40°C° 0 mm 1 mps 731 mmHg 34%
12:00 +41°C° 0 mm 1 mps 730 mmHg 31%
13:00 +42°C° 0 mm 1 mps 730 mmHg 29%
14:00 +43°C° 0 mm 1 mps 729 mmHg 26%
15:00 +43°C° 0 mm 1 mps 729 mmHg 25%
16:00 +45°C° 0 mm 2 mps 728 mmHg 25%
17:00 +45°C° 0 mm 2 mps 728 mmHg 24%
18:00 +44°C° 0 mm 3 mps 728 mmHg 25%
19:00 +43°C° 0 mm 3 mps 728 mmHg 26%
20:00 +43°C° 0 mm 3 mps 729 mmHg 27%
21:00 +42°C° 0 mm 4 mps 729 mmHg 29%
22:00 +41°C° 0 mm 4 mps 729 mmHg 31%
23:00 +41°C° 0 mm 4 mps 729 mmHg 33%
Show more